,,PA_Meas_PMT16A,,PR_Meas_QMR101_102,,RH_Meas_QMH101,,SR_Meas_QMS101,,TA_Meas_QMH101,,GenWind,,GenWind,
time,status,PA,status,PR,status,RH,status,SR,status,TA,status,DirAvg,status,SpdAvg,
2014-04-18, 06:58:04,VALID,917.501,VALID,0,VALID,96.9089,VALID,19.6617,VALID,19.4913,VALID,169,VALID,1.13984,
2014-04-18, 06:59:04,VALID,917.509,VALID,0,VALID,96.9317,VALID,21.0585,VALID,19.4703,VALID,166,VALID,1.77148,
2014-04-18, 07:00:04,VALID,917.49,VALID,0,VALID,96.9165,VALID,22.5626,VALID,19.4703,VALID,156,VALID,1.46914,
2014-04-18, 07:01:04,VALID,917.535,VALID,0,VALID,96.8936,VALID,24.1743,VALID,19.5093,VALID,162,VALID,1.38008,
2014-04-18, 07:02:04,VALID,917.534,VALID,0,VALID,96.9165,VALID,25.6784,VALID,19.5093,VALID,178,VALID,1.2668,
2014-04-18, 07:03:04,VALID,917.52,VALID,0,VALID,96.9165,VALID,27.5049,VALID,19.5093,VALID,189,VALID,1.46445,
2014-04-18, 07:04:04,VALID,917.533,VALID,0,VALID,96.9089,VALID,30.2984,VALID,19.5093,VALID,167,VALID,1.37617,
2014-04-18, 07:05:04,VALID,917.522,VALID,0,VALID,96.9165,VALID,33.9514,VALID,19.5288,VALID,170,VALID,1.6832,
2014-04-18, 07:06:04,VALID,917.551,VALID,0,VALID,96.9241,VALID,33.4142,VALID,19.5093,VALID,175,VALID,0.745313,
2014-04-18, 07:07:04,VALID,917.524,VALID,0,VALID,96.9089,VALID,32.9844,VALID,19.5498,VALID,146,VALID,1.71836,
2014-04-18, 07:08:04,VALID,917.518,VALID,0,VALID,96.9317,VALID,32.0175,VALID,19.5288,VALID,159,VALID,1.98789,
2014-04-18, 07:09:04,VALID,917.51,VALID,0,VALID,96.9241,VALID,31.0505,VALID,19.5093,VALID,156,VALID,1.49063,
2014-04-18, 07:10:04,VALID,917.531,VALID,0,VALID,96.9165,VALID,29.9761,VALID,19.5288,VALID,135,VALID,1.4207,
2014-04-18, 07:11:04,VALID,917.543,VALID,0,VALID,96.9241,VALID,29.4389,VALID,19.5078,VALID,147,VALID,1.56992,
2014-04-18, 07:12:04,VALID,917.579,VALID,0,VALID,96.9089,VALID,29.7612,VALID,19.5288,VALID,116,VALID,1.37227,
2014-04-18, 07:13:04,VALID,917.556,VALID,0,VALID,96.9317,VALID,30.7282,VALID,19.5288,VALID,113,VALID,1.99102,
2014-04-18, 07:14:04,VALID,917.589,VALID,0,VALID,96.8936,VALID,31.91,VALID,19.5303,VALID,115,VALID,1.06562,
2014-04-18, 07:15:04,VALID,917.58,VALID,0,VALID,96.9012,VALID,33.4142,VALID,19.5093,VALID,105,VALID,1.00039,
2014-04-18, 07:16:04,VALID,917.569,VALID,0,VALID,96.9241,VALID,35.0258,VALID,19.5093,VALID,77,VALID,0.832031,
2014-04-18, 07:17:04,VALID,917.573,VALID,0,VALID,96.8936,VALID,36.9598,VALID,19.5303,VALID,85,VALID,1.05469,
2014-04-18, 07:18:04,VALID,917.582,VALID,0,VALID,96.9012,VALID,39.8607,VALID,19.5093,VALID,92,VALID,0.608594,
2014-04-18, 07:19:04,VALID,917.572,VALID,0,VALID,96.9394,VALID,44.1583,VALID,19.5093,VALID,72,VALID,0.943359,
2014-04-18, 07:20:04,VALID,917.566,VALID,0,VALID,96.9012,VALID,50.7122,VALID,19.5093,VALID,95,VALID,0.860937,
2014-04-18, 07:21:04,VALID,917.578,VALID,0,VALID,96.9165,VALID,58.8778,VALID,19.5288,VALID,80,VALID,0.856641,
2014-04-18, 07:22:04,VALID,917.59,VALID,0,VALID,96.9089,VALID,73.06,VALID,19.5078,VALID,78,VALID,1.09414,
2014-04-18, 07:23:04,VALID,917.597,VALID,0,VALID,96.9012,VALID,81.0106,VALID,19.5483,VALID,75,VALID,1.10938,
2014-04-18, 07:24:04,VALID,917.614,VALID,0,VALID,96.9012,VALID,76.6055,VALID,19.5678,VALID,74,VALID,0.760938,
2014-04-18, 07:25:04,VALID,917.62,VALID,0,VALID,96.9165,VALID,107.656,VALID,19.5468,VALID,84,VALID,1.17969,
2014-04-18, 07:26:04,VALID,917.577,VALID,0,VALID,96.9165,VALID,99.5979,VALID,19.6068,VALID,83,VALID,1.03437,
2014-04-18, 07:27:04,VALID,917.568,VALID,0,VALID,96.9089,VALID,119.904,VALID,19.6068,VALID,109,VALID,1.40859,
2014-04-18, 07:28:04,VALID,917.532,VALID,0,VALID,96.9012,VALID,142.574,VALID,19.6248,VALID,111,VALID,1.18477,
2014-04-18, 07:29:04,VALID,917.546,VALID,0,VALID,96.8784,VALID,166.211,VALID,19.6833,VALID,126,VALID,0.667969,
2014-04-18, 07:30:04,VALID,917.5,VALID,0,VALID,96.8631,VALID,161.054,VALID,19.8213,VALID,129,VALID,1.0543,
2014-04-18, 07:31:04,VALID,917.534,VALID,0,VALID,96.8555,VALID,164.922,VALID,19.8393,VALID,124,VALID,1.69258,
2014-04-18, 07:32:04,VALID,917.552,VALID,0,VALID,96.8479,VALID,163.848,VALID,19.9188,VALID,135,VALID,1.03164,
2014-04-18, 07:33:04,VALID,917.555,VALID,0,VALID,96.8479,VALID,165.782,VALID,19.9173,VALID,131,VALID,0.900391,
2014-04-18, 07:34:04,VALID,917.572,VALID,0,VALID,96.825,VALID,166.319,VALID,20.0343,VALID,124,VALID,0.555078,
2014-04-18, 07:35:04,VALID,917.586,VALID,0,VALID,96.825,VALID,171.261,VALID,20.0928,VALID,130,VALID,0.943359,
2014-04-18, 07:36:04,VALID,917.609,VALID,0,VALID,96.8174,VALID,185.551,VALID,20.1513,VALID,138,VALID,0.550781,
2014-04-18, 07:37:04,VALID,917.596,VALID,0,VALID,96.8174,VALID,186.41,VALID,20.0928,VALID,144,VALID,1.33867,
2014-04-18, 07:38:04,VALID,917.591,VALID,0,VALID,96.8403,VALID,182.005,VALID,20.0538,VALID,151,VALID,1.20234,
2014-04-18, 07:39:04,VALID,917.59,VALID,0,VALID,96.825,VALID,187.915,VALID,20.1529,VALID,157,VALID,1.31484,
2014-04-18, 07:40:04,VALID,917.589,VALID,0,VALID,96.8174,VALID,170.831,VALID,20.1724,VALID,159,VALID,0.869922,
2014-04-18, 07:41:04,VALID,917.617,VALID,0,VALID,96.8326,VALID,173.088,VALID,20.1139,VALID,160,VALID,1.10391,
2014-04-18, 07:42:04,VALID,917.584,VALID,0,VALID,96.8403,VALID,165.137,VALID,20.0553,VALID,161,VALID,1.33281,
2014-04-18, 07:43:04,VALID,917.586,VALID,0,VALID,96.8326,VALID,155.145,VALID,19.9953,VALID,150,VALID,1.6082,
2014-04-18, 07:44:04,VALID,917.613,VALID,0,VALID,96.8479,VALID,161.269,VALID,20.0343,VALID,163,VALID,1.52617,
2014-04-18, 07:45:04,VALID,917.652,VALID,0,VALID,96.8174,VALID,166.211,VALID,20.0553,VALID,149,VALID,1.30352,
2014-04-18, 07:46:04,VALID,917.65,VALID,0,VALID,96.825,VALID,176.096,VALID,20.0538,VALID,144,VALID,0.999219,
2014-04-18, 07:47:04,VALID,917.673,VALID,0,VALID,96.8326,VALID,198.874,VALID,20.0553,VALID,166,VALID,1.54023,
2014-04-18, 07:48:04,VALID,917.723,VALID,0,VALID,96.8174,VALID,207.254,VALID,20.0928,VALID,145,VALID,1.23867,
2014-04-18, 07:49:04,VALID,917.71,VALID,0,VALID,96.8174,VALID,205.857,VALID,20.1513,VALID,152,VALID,0.96875,
2014-04-18, 07:50:04,VALID,917.751,VALID,0,VALID,96.8174,VALID,210.262,VALID,20.2098,VALID,149,VALID,1.11172,
2014-04-18, 07:51:04,VALID,917.748,VALID,0,VALID,96.7716,VALID,198.981,VALID,20.2684,VALID,142,VALID,1.10039,
2014-04-18, 07:52:04,VALID,917.776,VALID,0,VALID,96.7793,VALID,205.427,VALID,20.3269,VALID,157,VALID,1.25625,
2014-04-18, 07:53:04,VALID,917.771,VALID,0,VALID,96.7869,VALID,221.544,VALID,20.3464,VALID,155,VALID,1.09844,
2014-04-18, 07:54:04,VALID,917.707,VALID,0,VALID,96.7793,VALID,246.792,VALID,20.2863,VALID,152,VALID,1.50312,
2014-04-18, 07:55:04,VALID,917.694,VALID,0,VALID,96.8021,VALID,255.925,VALID,20.2668,VALID,153,VALID,1.97891,
2014-04-18, 07:56:04,VALID,917.73,VALID,0,VALID,96.7945,VALID,265.595,VALID,20.2684,VALID,150,VALID,1.88125,
2014-04-18, 07:57:04,VALID,917.736,VALID,0,VALID,96.7869,VALID,200.808,VALID,20.2879,VALID,157,VALID,1.82695,
2014-04-18, 07:58:04,VALID,917.737,VALID,0,VALID,96.7869,VALID,197.692,VALID,20.2684,VALID,158,VALID,2.10117,
2014-04-18, 07:59:04,VALID,917.761,VALID,0,VALID,96.7945,VALID,246.47,VALID,20.3089,VALID,159,VALID,2.09805,
2014-04-18, 08:00:04,VALID,917.767,VALID,0,VALID,96.7793,VALID,232.073,VALID,20.2894,VALID,158,VALID,2.48789,
2014-04-18, 08:01:04,VALID,917.785,VALID,0,VALID,96.7716,VALID,185.873,VALID,20.2879,VALID,148,VALID,2.26992,
2014-04-18, 08:02:04,VALID,917.784,VALID,0,VALID,96.7564,VALID,151.385,VALID,20.3269,VALID,142,VALID,1.93359,
2014-04-18, 08:03:04,VALID,917.843,VALID,0,VALID,96.7411,VALID,140.64,VALID,20.3464,VALID,145,VALID,1.40234,
2014-04-18, 08:04:04,VALID,917.848,VALID,0,VALID,96.7259,VALID,143.649,VALID,20.3659,VALID,130,VALID,1.15898,
2014-04-18, 08:05:04,VALID,917.869,VALID,0,VALID,96.7183,VALID,145.583,VALID,20.4439,VALID,90,VALID,1.57852,
2014-04-18, 08:06:04,VALID,917.876,VALID,0,VALID,96.7335,VALID,151.385,VALID,20.4439,VALID,112,VALID,2.22813,
2014-04-18, 08:07:04,VALID,917.886,VALID,0,VALID,96.7259,VALID,148.591,VALID,20.3854,VALID,113,VALID,1.91562,
2014-04-18, 08:08:04,VALID,917.913,VALID,0,VALID,96.7183,VALID,151.599,VALID,20.4064,VALID,95,VALID,1.68906,
2014-04-18, 08:09:04,VALID,917.948,VALID,0,VALID,96.6802,VALID,157.186,VALID,20.465,VALID,89,VALID,0.690234,
2014-04-18, 08:10:04,VALID,917.939,VALID,0,VALID,96.6878,VALID,181.038,VALID,20.4439,VALID,119,VALID,1.98242,
2014-04-18, 08:11:04,VALID,917.966,VALID,0,VALID,96.6725,VALID,197.262,VALID,20.4634,VALID,123,VALID,1.82813,
2014-04-18, 08:12:04,VALID,917.975,VALID,0,VALID,96.6573,VALID,208.114,VALID,20.5399,VALID,88,VALID,1.10977,
2014-04-18, 08:13:04,VALID,917.974,VALID,0,VALID,96.6802,VALID,211.981,VALID,20.5609,VALID,113,VALID,1.93281,
2014-04-18, 08:14:04,VALID,918.02,VALID,0,VALID,96.6573,VALID,229.065,VALID,20.6194,VALID,125,VALID,0.749219,
2014-04-18, 08:15:04,VALID,918.024,VALID,0,VALID,96.6192,VALID,228.527,VALID,20.6764,VALID,79,VALID,1.13203,
2014-04-18, 08:16:04,VALID,918.009,VALID,0,VALID,96.6039,VALID,224.659,VALID,20.6975,VALID,91,VALID,1.19922,
2014-04-18, 08:17:04,VALID,918.029,VALID,0,VALID,96.5811,VALID,226.808,VALID,20.756,VALID,75,VALID,1.43008,
2014-04-18, 08:18:04,VALID,918.01,VALID,0,VALID,96.5658,VALID,229.924,VALID,20.756,VALID,118,VALID,1.42031,
2014-04-18, 08:19:04,VALID,918.026,VALID,0,VALID,96.5734,VALID,241.957,VALID,20.7154,VALID,116,VALID,1.86914,
2014-04-18, 08:20:04,VALID,918.054,VALID,0,VALID,96.5429,VALID,236.693,VALID,20.6959,VALID,112,VALID,1.14688,
2014-04-18, 08:21:04,VALID,918.046,VALID,0,VALID,96.5353,VALID,239.057,VALID,20.6975,VALID,116,VALID,1.60195,
2014-04-18, 08:22:04,VALID,918.081,VALID,0,VALID,96.4896,VALID,246.792,VALID,20.8129,VALID,136,VALID,0.871484,
2014-04-18, 08:23:04,VALID,918.123,VALID,0,VALID,96.4362,VALID,247.007,VALID,20.8519,VALID,95,VALID,0.808984,
2014-04-18, 08:24:04,VALID,918.143,VALID,0,VALID,96.421,VALID,256.784,VALID,21.0291,VALID,82,VALID,0.548047,
2014-04-18, 08:25:04,VALID,918.188,VALID,0,VALID,96.3829,VALID,263.553,VALID,21.1071,VALID,85,VALID,1.00469,
2014-04-18, 08:26:04,VALID,918.209,VALID,0,VALID,96.3447,VALID,274.942,VALID,21.1461,VALID,75,VALID,0.953906,
2014-04-18, 08:27:04,VALID,918.229,VALID,0,VALID,96.3142,VALID,267.206,VALID,21.1461,VALID,138,VALID,0.727344,
2014-04-18, 08:28:04,VALID,918.254,VALID,0,VALID,96.2533,VALID,252.487,VALID,21.2616,VALID,109,VALID,0.588281,
2014-04-18, 08:29:04,VALID,918.244,VALID,0,VALID,96.2151,VALID,252.594,VALID,21.3201,VALID,150,VALID,0.4875,
2014-04-18, 08:30:04,VALID,918.296,VALID,0,VALID,96.177,VALID,220.899,VALID,21.4388,VALID,149,VALID,0.377344,
2014-04-18, 08:31:04,VALID,918.279,VALID,0,VALID,96.1236,VALID,219.287,VALID,21.4372,VALID,150,VALID,0.516406,
2014-04-18, 08:32:04,VALID,918.3,VALID,0,VALID,96.0627,VALID,228.312,VALID,21.3591,VALID,150,VALID,0.595312,
2014-04-18, 08:33:04,VALID,918.291,VALID,0,VALID,95.9407,VALID,229.602,VALID,21.3981,VALID,150,VALID,0.159766,
2014-04-18, 08:34:04,VALID,918.286,VALID,0,VALID,95.8416,VALID,299.009,VALID,21.3981,VALID,150,VALID,0.530469,
2014-04-18, 08:35:04,VALID,918.268,VALID,0,VALID,95.7349,VALID,226.593,VALID,21.4957,VALID,150,VALID,0.0632813,
2014-04-18, 08:36:04,VALID,918.288,VALID,0,VALID,95.6586,VALID,232.395,VALID,21.5737,VALID,150,VALID,0,
2014-04-18, 08:37:04,VALID,918.292,VALID,0,VALID,95.5367,VALID,170.402,VALID,21.6128,VALID,150,VALID,0.596875,
2014-04-18, 08:38:04,VALID,918.245,VALID,0,VALID,95.1707,VALID,196.188,VALID,21.4746,VALID,150,VALID,0.657031,
2014-04-18, 08:39:04,VALID,918.285,VALID,0,VALID,94.8124,VALID,267.528,VALID,21.455,VALID,150,VALID,0.453125,
2014-04-18, 08:40:04,VALID,918.272,VALID,0,VALID,94.4541,VALID,176.741,VALID,21.3981,VALID,150,VALID,0.238672,
2014-04-18, 08:41:04,VALID,918.255,VALID,0,VALID,94.4694,VALID,191.675,VALID,21.4372,VALID,150,VALID,0.323047,
2014-04-18, 08:42:04,VALID,918.276,VALID,0,VALID,94.4313,VALID,190.601,VALID,21.4372,VALID,150,VALID,0.257813,
2014-04-18, 08:43:04,VALID,918.247,VALID,0,VALID,94.4389,VALID,184.154,VALID,21.5347,VALID,150,VALID,0.552734,
2014-04-18, 08:44:04,VALID,918.274,VALID,0,VALID,94.1111,VALID,184.476,VALID,21.5542,VALID,161,VALID,1.12656,
2014-04-18, 08:45:04,VALID,918.316,VALID,0,VALID,93.3487,VALID,194.791,VALID,21.5347,VALID,134,VALID,0.964453,
2014-04-18, 08:46:04,VALID,918.314,VALID,0,VALID,92.5254,VALID,205.213,VALID,21.5152,VALID,134,VALID,1.38867,
2014-04-18, 08:47:04,VALID,918.351,VALID,0,VALID,91.6411,VALID,213.915,VALID,21.416,VALID,133,VALID,1.0668,
2014-04-18, 08:48:04,VALID,918.347,VALID,0,VALID,91.9079,VALID,218.75,VALID,21.5152,VALID,136,VALID,0.813281,
2014-04-18, 08:49:04,VALID,918.384,VALID,0,VALID,91.603,VALID,221.329,VALID,21.4957,VALID,119,VALID,0.853516,
2014-04-18, 08:50:04,VALID,918.407,VALID,0,VALID,91.8545,VALID,223.585,VALID,21.5754,VALID,109,VALID,1.28047,
2014-04-18, 08:51:04,VALID,918.409,VALID,0,VALID,92.007,VALID,223.907,VALID,21.5542,VALID,100,VALID,0.71875,
2014-04-18, 08:52:04,VALID,918.45,VALID,0,VALID,92.7389,VALID,218.32,VALID,21.6713,VALID,89,VALID,0.898047,
2014-04-18, 08:53:04,VALID,918.474,VALID,0,VALID,92.4263,VALID,208.436,VALID,21.7493,VALID,57,VALID,1.37852,
2014-04-18, 08:54:04,VALID,918.478,VALID,0,VALID,91.5267,VALID,198.874,VALID,21.7103,VALID,66,VALID,1.57656,
2014-04-18, 08:55:04,VALID,918.501,VALID,0,VALID,91.8698,VALID,195.006,VALID,21.751,VALID,100,VALID,0.660547,
2014-04-18, 08:56:04,VALID,918.512,VALID,0,VALID,91.4505,VALID,193.502,VALID,21.6518,VALID,124,VALID,1.14023,
2014-04-18, 08:57:04,VALID,918.504,VALID,0,VALID,92.0985,VALID,190.171,VALID,21.7103,VALID,86,VALID,0.803516,
2014-04-18, 08:58:04,VALID,918.545,VALID,0,VALID,92.2205,VALID,185.658,VALID,21.7883,VALID,77,VALID,1.12344,
2014-04-18, 08:59:04,VALID,918.556,VALID,0,VALID,91.9536,VALID,179.749,VALID,21.7705,VALID,60,VALID,1.11797,
2014-04-18, 09:00:04,VALID,918.547,VALID,0,VALID,92.0604,VALID,173.41,VALID,21.79,VALID,61,VALID,1.1168,
2014-04-18, 09:01:04,VALID,918.528,VALID,0,VALID,91.4352,VALID,169.972,VALID,21.7298,VALID,94,VALID,1.15273,
2014-04-18, 09:02:04,VALID,918.548,VALID,0,VALID,90.3527,VALID,170.509,VALID,21.6518,VALID,83,VALID,0.865625,
2014-04-18, 09:03:04,VALID,918.565,VALID,0,VALID,90.0783,VALID,174.27,VALID,21.6323,VALID,114,VALID,1.25703,
2014-04-18, 09:04:04,VALID,918.572,VALID,0,VALID,90.4366,VALID,182.22,VALID,21.6713,VALID,88,VALID,0.779297,
2014-04-18, 09:05:04,VALID,918.594,VALID,0,VALID,90.6424,VALID,184.906,VALID,21.7298,VALID,88,VALID,0.917578,
2014-04-18, 09:06:04,VALID,918.619,VALID,0,VALID,90.5052,VALID,186.303,VALID,21.7688,VALID,59,VALID,0.795703,
2014-04-18, 09:07:04,VALID,918.628,VALID,0,VALID,90.1774,VALID,186.948,VALID,21.8079,VALID,60,VALID,0.666406,
2014-04-18, 09:08:04,VALID,918.647,VALID,0,VALID,90.1012,VALID,184.262,VALID,21.8469,VALID,59,VALID,0.329688,
2014-04-18, 09:09:04,VALID,918.654,VALID,0,VALID,90.1469,VALID,182.865,VALID,21.9054,VALID,59,VALID,0.186328,
2014-04-18, 09:10:04,VALID,918.665,VALID,0,VALID,89.7733,VALID,186.625,VALID,21.9656,VALID,60,VALID,0.433203,
2014-04-18, 09:11:04,VALID,918.693,VALID,0,VALID,89.4837,VALID,194.146,VALID,22.003,VALID,59,VALID,0.637891,
2014-04-18, 09:12:04,VALID,918.662,VALID,0,VALID,89.2702,VALID,204.998,VALID,21.9835,VALID,59,VALID,0.447656,
2014-04-18, 09:13:04,VALID,918.723,VALID,0,VALID,89.9106,VALID,218.535,VALID,22.003,VALID,59,VALID,0.641406,
2014-04-18, 09:14:04,VALID,918.72,VALID,0,VALID,90.4061,VALID,236.371,VALID,22.0437,VALID,59,VALID,0.548437,
2014-04-18, 09:15:04,VALID,918.725,VALID,0,VALID,91.1532,VALID,247.652,VALID,22.081,VALID,59,VALID,0.00117188,
2014-04-18, 09:16:04,VALID,918.773,VALID,0,VALID,91.3209,VALID,268.925,VALID,22.1201,VALID,59,VALID,0.704687,
2014-04-18, 09:17:04,VALID,918.789,VALID,0,VALID,91.4657,VALID,262.586,VALID,22.1396,VALID,59,VALID,0.558984,
2014-04-18, 09:18:04,VALID,918.808,VALID,0,VALID,91.9689,VALID,257.751,VALID,22.2371,VALID,59,VALID,0.488672,
2014-04-18, 09:19:04,VALID,918.816,VALID,0,VALID,91.4352,VALID,269.892,VALID,22.2957,VALID,59,VALID,0.451562,
2014-04-18, 09:20:04,VALID,918.874,VALID,0,VALID,91.4276,VALID,286.76,VALID,22.4128,VALID,59,VALID,0.539063,
2014-04-18, 09:21:04,VALID,918.887,VALID,0,VALID,90.6729,VALID,306.315,VALID,22.4713,VALID,59,VALID,0.6125,
2014-04-18, 09:22:04,VALID,918.908,VALID,0,VALID,89.537,VALID,345.853,VALID,22.4713,VALID,59,VALID,0.534375,
2014-04-18, 09:23:04,VALID,918.932,VALID,0,VALID,89.0034,VALID,349.399,VALID,22.4323,VALID,59,VALID,0.645703,
2014-04-18, 09:24:04,VALID,918.905,VALID,0,VALID,88.2487,VALID,485.634,VALID,22.4323,VALID,59,VALID,0.654297,
2014-04-18, 09:25:04,VALID,918.949,VALID,0,VALID,88.1801,VALID,427.186,VALID,22.4713,VALID,59,VALID,0.642969,
2014-04-18, 09:26:04,VALID,918.945,VALID,0,VALID,87.9742,VALID,338.977,VALID,22.4713,VALID,59,VALID,0.742969,
2014-04-18, 09:27:04,VALID,918.957,VALID,0,VALID,87.6388,VALID,320.067,VALID,22.4908,VALID,59,VALID,0.694922,
2014-04-18, 09:28:04,VALID,918.978,VALID,0,VALID,87.5397,VALID,302.339,VALID,22.4908,VALID,59,VALID,0.204297,
2014-04-18, 09:29:04,VALID,918.963,VALID,0,VALID,86.1065,VALID,309.968,VALID,22.4908,VALID,358,VALID,0.780078,
2014-04-18, 09:30:04,VALID,919.015,VALID,0,VALID,85.7558,VALID,335.861,VALID,22.4518,VALID,324,VALID,0.830469,
2014-04-18, 09:31:04,VALID,919.001,VALID,0,VALID,87.4787,VALID,318.348,VALID,22.5103,VALID,343,VALID,0.853906,
2014-04-18, 09:32:04,VALID,919.019,VALID,0,VALID,87.959,VALID,389.797,VALID,22.6877,VALID,348,VALID,0.561719,
2014-04-18, 09:33:04,VALID,919.028,VALID,0,VALID,86.8002,VALID,488.642,VALID,22.6843,VALID,300,VALID,0.813672,
2014-04-18, 09:34:04,VALID,919.059,VALID,0,VALID,86.8917,VALID,481.981,VALID,22.7055,VALID,297,VALID,0.683594,
2014-04-18, 09:35:04,VALID,919.055,VALID,0,VALID,85.9388,VALID,533.016,VALID,22.7055,VALID,297,VALID,0.9375,
2014-04-18, 09:36:04,VALID,919.075,VALID,0,VALID,86.9069,VALID,497.453,VALID,22.7428,VALID,302,VALID,0.675781,
2014-04-18, 09:37:04,VALID,919.093,VALID,0,VALID,87.3872,VALID,525.387,VALID,22.8209,VALID,302,VALID,0.332422,
2014-04-18, 09:38:04,VALID,919.082,VALID,0,VALID,87.7836,VALID,588.348,VALID,22.938,VALID,6,VALID,0.505469,
2014-04-18, 09:39:04,VALID,919.017,VALID,0,VALID,88.2944,VALID,598.877,VALID,23.1331,VALID,5,VALID,0.172656,
2014-04-18, 09:40:04,VALID,919.043,VALID,0,VALID,87.9209,VALID,624.985,VALID,23.3674,VALID,319,VALID,0.455078,
2014-04-18, 09:41:04,VALID,919.022,VALID,0,VALID,87.9818,VALID,576.207,VALID,23.6016,VALID,317,VALID,0.122266,
2014-04-18, 09:42:04,VALID,919.022,VALID,0,VALID,86.6096,VALID,611.34,VALID,23.8163,VALID,289,VALID,0.239453,
2014-04-18, 09:43:04,VALID,919.01,VALID,0,VALID,84.6275,VALID,620.258,VALID,24.0097,VALID,290,VALID,0.673828,
2014-04-18, 09:44:04,VALID,919.029,VALID,0,VALID,83.9033,VALID,633.043,VALID,24.1482,VALID,298,VALID,0.389453,
2014-04-18, 09:45:04,VALID,919.039,VALID,0,VALID,82.0813,VALID,614.349,VALID,24.1873,VALID,298,VALID,0.833594,
2014-04-18, 09:46:04,VALID,919.056,VALID,0,VALID,82.5845,VALID,616.068,VALID,24.1092,VALID,303,VALID,0.708203,
2014-04-18, 09:47:04,VALID,919.076,VALID,0,VALID,81.9975,VALID,601.67,VALID,24.0097,VALID,324,VALID,0.991406,
2014-04-18, 09:48:04,VALID,919.103,VALID,0,VALID,79.9468,VALID,596.298,VALID,23.834,VALID,283,VALID,0.961719,
2014-04-18, 09:49:04,VALID,919.097,VALID,0,VALID,82.8055,VALID,585.447,VALID,23.6779,VALID,288,VALID,1.23164,
2014-04-18, 09:50:04,VALID,919.121,VALID,0,VALID,84.1778,VALID,561.058,VALID,23.5998,VALID,295,VALID,1.04648,
2014-04-18, 09:51:04,VALID,919.126,VALID,0,VALID,84.3302,VALID,631.754,VALID,23.6193,VALID,282,VALID,0.613281,
2014-04-18, 09:52:04,VALID,919.103,VALID,0,VALID,83.8195,VALID,542.363,VALID,23.6779,VALID,298,VALID,0.851563,
2014-04-18, 09:53:04,VALID,919.091,VALID,0,VALID,81.7154,VALID,714.699,VALID,23.7169,VALID,325,VALID,0.926172,
2014-04-18, 09:54:04,VALID,919.123,VALID,0,VALID,83.0571,VALID,390.119,VALID,23.795,VALID,326,VALID,0.273047,
2014-04-18, 09:55:04,VALID,919.104,VALID,0,VALID,82.8742,VALID,408.814,VALID,23.8731,VALID,288,VALID,0.641797,
2014-04-18, 09:56:04,VALID,919.108,VALID,0,VALID,82.5235,VALID,342.093,VALID,24.0097,VALID,325,VALID,1.06133,
2014-04-18, 09:57:04,VALID,919.141,VALID,0,VALID,80.3127,VALID,540.536,VALID,23.8145,VALID,294,VALID,0.775391,
2014-04-18, 09:58:04,VALID,919.149,VALID,0,VALID,81.7154,VALID,554.826,VALID,23.6992,VALID,326,VALID,0.714063,
2014-04-18, 09:59:04,VALID,919.142,VALID,0,VALID,83.1257,VALID,579.323,VALID,23.8163,VALID,335,VALID,0.878125,
2014-04-18, 10:00:04,VALID,919.143,VALID,0,VALID,81.9746,VALID,661.945,VALID,23.9725,VALID,353,VALID,0.448047,
2014-04-18, 10:01:04,VALID,919.132,VALID,0,VALID,83.3468,VALID,825.041,VALID,24.2458,VALID,348,VALID,0.680078,
2014-04-18, 10:02:04,VALID,919.114,VALID,0,VALID,82.6759,VALID,839.223,VALID,24.5564,VALID,38,VALID,1.96484,
2014-04-18, 10:03:04,VALID,919.123,VALID,0,VALID,82.6378,VALID,744.782,VALID,24.8121,VALID,15,VALID,0.769531,
2014-04-18, 10:04:04,VALID,919.113,VALID,0,VALID,80.6405,VALID,570.513,VALID,24.9292,VALID,311,VALID,0.926172,
2014-04-18, 10:05:04,VALID,919.064,VALID,0,VALID,80.1602,VALID,322.861,VALID,25.0055,VALID,333,VALID,0.232031,
2014-04-18, 10:06:04,VALID,919.084,VALID,0,VALID,81.075,VALID,307.497,VALID,25.1031,VALID,28,VALID,1.48672,
2014-04-18, 10:07:04,VALID,919.073,VALID,0,VALID,78.6965,VALID,287.513,VALID,25.1422,VALID,22,VALID,1.80547,
2014-04-18, 10:08:04,VALID,919.068,VALID,0,VALID,78.9024,VALID,254.206,VALID,25.0055,VALID,58,VALID,0.739453,
2014-04-18, 10:09:04,VALID,919.051,VALID,0,VALID,77.9494,VALID,271.396,VALID,24.9078,VALID,43,VALID,1.19609,
2014-04-18, 10:10:04,VALID,919.027,VALID,0,VALID,76.5848,VALID,381.524,VALID,24.7321,VALID,5,VALID,1.75742,
2014-04-18, 10:11:04,VALID,919.044,VALID,0,VALID,78.0257,VALID,725.228,VALID,24.5954,VALID,290,VALID,0.564844,
2014-04-18, 10:12:04,VALID,919.044,VALID,0,VALID,79.2302,VALID,296.538,VALID,24.5173,VALID,15,VALID,0.664844,
2014-04-18, 10:13:04,VALID,919.025,VALID,0,VALID,80.1678,VALID,294.496,VALID,24.5778,VALID,16,VALID,0.56875,
2014-04-18, 10:14:04,VALID,919.066,VALID,0,VALID,79.7181,VALID,351.547,VALID,24.6735,VALID,359,VALID,1.06367,
2014-04-18, 10:15:04,VALID,919.049,VALID,0,VALID,80.8082,VALID,316.522,VALID,24.7516,VALID,9,VALID,1.25273,
2014-04-18, 10:16:04,VALID,919.049,VALID,0,VALID,77.7207,VALID,308.571,VALID,24.6735,VALID,6,VALID,1.57422,
2014-04-18, 10:17:04,VALID,919.061,VALID,0,VALID,78.2391,VALID,291.488,VALID,24.6949,VALID,10,VALID,0.739453,
2014-04-18, 10:18:04,VALID,919.059,VALID,0,VALID,77.8122,VALID,335.861,VALID,24.693,VALID,20,VALID,0.432422,
2014-04-18, 10:19:04,VALID,919.04,VALID,0,VALID,78.6203,VALID,404.516,VALID,24.7321,VALID,16,VALID,0.595703,
2014-04-18, 10:20:04,VALID,919.024,VALID,0,VALID,78.0257,VALID,446.848,VALID,24.8102,VALID,14,VALID,0.8625,
2014-04-18, 10:21:04,VALID,918.993,VALID,0,VALID,78.9328,VALID,279.24,VALID,24.8707,VALID,6,VALID,1.10234,
2014-04-18, 10:22:04,VALID,918.993,VALID,0,VALID,80.2593,VALID,278.81,VALID,24.9274,VALID,41,VALID,1.57422,
2014-04-18, 10:23:04,VALID,919.025,VALID,0,VALID,78.9252,VALID,270.967,VALID,24.9274,VALID,8,VALID,1.28125,
2014-04-18, 10:24:04,VALID,919.047,VALID,0,VALID,79.1158,VALID,259.793,VALID,24.9664,VALID,7,VALID,1.24492,
2014-04-18, 10:25:04,VALID,919.037,VALID,0,VALID,79.253,VALID,250.66,VALID,24.8297,VALID,24,VALID,1.01602,
2014-04-18, 10:26:04,VALID,919.053,VALID,0,VALID,78.9557,VALID,248.619,VALID,24.7516,VALID,5,VALID,0.835938,
2014-04-18, 10:27:04,VALID,919.058,VALID,0,VALID,77.5149,VALID,260.76,VALID,24.654,VALID,350,VALID,1.05078,
2014-04-18, 10:28:04,VALID,919.082,VALID,0,VALID,78.0409,VALID,290.951,VALID,24.5564,VALID,9,VALID,1.40195,
2014-04-18, 10:29:04,VALID,919.127,VALID,0,VALID,77.431,VALID,315.125,VALID,24.3611,VALID,359,VALID,1.73711,
2014-04-18, 10:30:04,VALID,919.134,VALID,0,VALID,79.8248,VALID,334.572,VALID,24.2049,VALID,27,VALID,1.2582,
2014-04-18, 10:31:04,VALID,919.113,VALID,0,VALID,79.8248,VALID,342.415,VALID,24.1854,VALID,31,VALID,1.91094,
2014-04-18, 10:32:04,VALID,919.143,VALID,0,VALID,80.1069,VALID,338.655,VALID,24.2635,VALID,60,VALID,1.04492,